[[{"header":{"parameterUnit":"m.s-1","parameterCategory":1,"la1":30.2991,"la2":30.254,"lo1":-89.0895,"lo2":-89.0444,"dy":0.0017,"dx":0.0017,"nx":28,"ny":28,"refTime":"2024-05-25T09:00:00:Z","depth":0,"parameterNumber":2,"parameterNumberName":"U-component_of_WINDS"},"data":[0,0,0,0,0,0,0,0,0,0,0,0,0,0,0,0,0,0,0,0,0,0,0,0,0,0,0,0,0,0,0,0,0,0,0,0,0,0,0,0,0,0,0,0,0,0,0,0,0,0,0,0,0,0,0,0,0,0,2.2237,2.2237,0,2.2254,2.2254,2.2255,2.2223,2.2222,2.2221,2.222,2.2236,2.2237,2.2238,0,0,0,0,0,0,0,0,0,0,0,0,0,2.2175,2.2176,2.2237,2.2237,2.2238,2.2254,2.2254,2.2255,2.2223,2.2222,2.2221,2.2219,2.2235,2.2237,2.2238,0,0,0,0,0,0,0,0,0,0,0,0,0,2.2198,2.2177,2.2237,2.2224,2.2223,2.2254,2.2254,2.2255,2.2223,2.2222,2.222,2.2219,2.2235,2.2237,2.2239,2.2283,0,0,2.2245,2.2246,0,0,0,0,0,0,0,0,2.2197,2.22,2.2226,2.2225,2.2224,2.2235,2.2238,2.2264,2.2224,2.2223,2.222,2.2218,2.2237,2.2238,2.2245,2.2284,2.2284,2.2245,2.2247,2.2247,2.2248,0,0,0,0,0,0,0,2.2195,2.2199,2.2244,2.2226,2.2225,2.2216,2.2218,2.2243,2.2238,2.2223,2.2221,2.2223,2.2236,2.2243,2.2245,2.2285,2.2245,2.2247,2.2248,2.2249,2.2358,2.236,0,0,0,0,0,0,2.2196,2.2198,2.2243,2.2244,2.2206,2.2219,2.222,2.2233,2.2238,2.2237,2.2225,2.2222,2.224,2.2243,2.2245,2.2296,2.2247,2.2249,2.2251,2.2357,2.2359,2.236,0,0,0,0,0,0,2.2194,2.22,2.2243,2.2221,2.2226,2.2222,2.2236,2.2234,2.2241,2.2239,2.2238,2.2233,2.2239,2.2243,2.2273,2.2296,2.225,2.2252,2.2355,2.2357,2.236,2.2398,0,0,0,0,0,0,2.2193,2.22,2.2217,2.2221,2.2227,2.2271,2.2237,2.2236,2.2245,2.2242,2.2247,2.2246,2.2238,2.2271,2.2276,2.2298,2.2254,2.2353,2.2356,2.2359,2.2395,2.2401,2.2407,0,0,0,0,0,2.2191,2.2227,2.2218,2.2224,2.2249,2.2273,2.2276,2.2266,2.2247,2.2264,2.2262,2.2246,2.2293,2.2274,2.2279,2.2303,2.2351,2.2355,2.2359,2.2392,2.24,2.2407,0,0,0,0,0,0,2.2226,2.2228,2.2218,2.2257,2.2265,2.2267,2.2288,2.2276,2.2289,2.2285,2.2272,2.2273,2.2306,2.2308,2.2286,2.2345,2.2319,2.2324,2.2342,2.235,2.2356,2.2354,2.2256,0,0,0,0,0,2.2238,2.2258,2.2259,2.2293,2.2298,2.2293,2.2303,2.2295,2.2302,2.2305,2.2306,2.2313,2.2329,2.234,2.2355,2.2395,2.2395,2.2414,2.242,2.2426,2.2429,2.2449,2.2457,2.2373,2.2373,2.2372,0,0,2.2264,2.2267,2.2281,2.23,2.2306,2.2325,2.2296,2.2318,2.2332,2.2308,2.2337,2.2338,2.2345,2.238,2.2396,2.2383,2.2453,2.243,2.2434,2.2435,2.2453,2.2461,2.2468,2.2375,2.2375,2.2374,0,0,2.232,2.2326,2.2354,2.236,2.2368,2.2364,2.2371,2.2375,2.2375,2.2404,2.2385,2.2402,2.2431,2.2436,2.2442,2.25,2.2484,2.2505,2.2537,2.2556,2.2563,2.2569,2.2587,2.2594,2.2509,2.2509,2.2509,0,2.235,2.238,2.237,2.2394,2.2402,2.2382,2.2409,2.2415,2.2428,2.2434,2.2419,2.2454,2.2457,2.2492,2.2506,2.2513,2.2519,2.2503,2.2563,2.2569,2.2574,2.2591,2.2598,2.2512,2.2511,2.2511,2.2511,0,2.2416,2.2437,2.2459,2.2471,2.2482,2.2508,2.2501,2.2513,2.2504,2.2501,2.253,2.2534,2.2548,2.2556,2.2548,2.259,2.2581,2.2565,2.2538,2.2584,2.26,2.2607,2.2515,2.2514,2.2513,2.2513,0,0,2.2494,2.25,2.2508,2.2513,2.252,2.2535,2.256,2.2574,2.2584,2.2593,2.2612,2.2636,2.2621,2.2628,2.262,2.2637,2.268,2.2619,2.2619,2.2628,2.2724,2.2735,2.2743,2.2671,2.2672,2.2673,2.2723,0,2.2548,2.259,2.2581,2.2622,2.2639,2.262,2.2641,2.2647,2.2645,2.2659,2.2657,2.2674,2.2654,2.2657,2.2674,2.2671,2.2699,2.2668,2.2686,2.2687,2.2683,2.2751,2.2763,2.281,2.2729,2.273,2.2731,0,2.2617,2.2628,2.267,2.2673,2.268,2.2699,2.271,2.2725,2.2731,2.2728,2.2736,2.2725,2.2747,2.2722,2.2752,2.2731,2.2738,2.2738,2.274,2.2739,2.271,2.2751,2.2824,2.2831,2.2741,2.274,2.274,0,2.2666,2.2693,2.2721,2.2725,2.273,2.2743,2.2746,2.275,2.2759,2.2769,2.2774,2.2787,2.2794,2.2803,2.2795,2.2778,2.2826,2.28,2.2822,2.2823,2.2832,2.2831,2.2906,2.284,2.284,2.284,2.284,0,2.2726,2.2752,2.2743,2.276,2.2788,2.2777,2.2805,2.2805,2.2809,2.2825,2.281,2.2825,2.2814,2.2828,2.2822,2.2846,2.285,2.2847,2.2845,2.2848,2.2848,2.285,2.2846,2.2842,2.2841,2.2841,2.2841,0,2.2786,2.2781,2.281,2.2812,2.2813,2.2833,2.2834,2.2849,2.2846,2.2866,2.2871,2.2866,2.2881,2.2874,2.2891,2.2886,2.2917,2.2912,2.2915,2.2913,2.2935,2.2932,2.3013,2.3022,2.2952,2.2953,2.2954,0,2.2823,2.2843,2.2846,2.2856,2.2859,2.2875,2.2884,2.2875,2.2884,2.2892,2.2906,2.292,2.293,2.2956,2.2953,2.2965,2.2959,2.2986,2.296,2.2962,2.2956,2.2954,2.2955,2.299,2.2991,2.2992,2.2992,0,2.2889,2.2886,2.2899,2.2911,2.2922,2.2931,2.2938,2.2947,2.2938,2.2949,2.2965,2.2973,2.2989,2.3003,2.3013,2.3015,2.3002,2.3001,2.3006,2.3008,2.3008,2.3006,2.2927,2.2999,2.2998,2.2997,2.2997,2.2997,2.2937,2.2953,2.2957,2.2972,2.2977,2.2984,2.2998,2.2997,2.301,2.3022,2.3016,2.3034,2.3038,2.3051,2.3054,2.3067,2.3056,2.3065,2.3067,2.3068,2.307,2.3008,2.307,2.3069,2.3069,2.3069,2.3069,0,2.3001,2.3003,2.3016,2.3027,2.3038,2.3026,2.3034,2.3043,2.3059,2.3065,2.3076,2.3093,2.3106,2.3104,2.3116,2.3127,2.3121,2.313,2.3128,2.3128,2.3081,2.3074,2.3134,2.3134,2.3134,2.3134,2.3134,2.3134,2.3035,2.3059,2.3056,2.3083,2.3085,2.3102,2.3107,2.3113,2.3117,2.3137,2.3148,2.3147,2.3149,2.3161,2.3172,2.3171,2.3175,2.3186,2.3183,2.3138,2.3132,2.3125,2.3119,2.3188,2.3188,2.3229,2.3229,2.323]},{"header":{"parameterUnit":"m.s-1","parameterCategory":1,"la1":30.2991,"la2":30.254,"lo1":-89.0895,"lo2":-89.0444,"dy":0.0017,"dx":0.0017,"nx":28,"ny":28,"refTime":"2024-05-25T09:00:00:Z","depth":0,"parameterNumber":3,"parameterNumberName":"V-component_of_WINDS"},"data":[0,0,0,0,0,0,0,0,0,0,0,0,0,0,0,0,0,0,0,0,0,0,0,0,0,0,0,0,0,0,0,0,0,0,0,0,0,0,0,0,0,0,0,0,0,0,0,0,0,0,0,0,0,0,0,0,0,0,6.168,6.1681,0,6.1801,6.1802,6.1804,6.1786,6.1784,6.1782,6.178,6.19,6.1905,6.191,0,0,0,0,0,0,0,0,0,0,0,0,0,6.1428,6.1432,6.168,6.1681,6.1683,6.1801,6.1802,6.1804,6.1787,6.1784,6.1782,6.178,6.1898,6.1904,6.191,0,0,0,0,0,0,0,0,0,0,0,0,0,6.1542,6.1434,6.1679,6.1688,6.169,6.18,6.1803,6.1805,6.1787,6.1784,6.1781,6.1778,6.1896,6.1904,6.1911,6.2019,0,0,6.1935,6.1938,0,0,0,0,0,0,0,0,6.1535,6.1551,6.1685,6.1688,6.169,6.1776,6.1757,6.1876,6.1788,6.175,6.178,6.1777,6.1861,6.1871,6.19,6.2024,6.203,6.1935,6.194,6.1943,6.1945,0,0,0,0,0,0,0,6.1527,6.1546,6.1727,6.1687,6.169,6.1685,6.1697,6.178,6.1821,6.1753,6.1752,6.1767,6.1861,6.1893,6.1903,6.2031,6.1935,6.1942,6.1946,6.1949,6.2248,6.2251,0,0,0,0,0,0,6.1518,6.1539,6.1724,6.1731,6.1604,6.1692,6.1706,6.1751,6.182,6.1828,6.177,6.1766,6.1882,6.1894,6.1907,6.2037,6.1943,6.195,6.1955,6.2244,6.2248,6.2252,0,0,0,0,0,0,6.1512,6.1534,6.1719,6.1635,6.1658,6.1699,6.175,6.1755,6.1787,6.1832,6.1839,6.1795,6.188,6.1897,6.1991,6.2041,6.1954,6.196,6.224,6.2246,6.225,6.2297,0,0,0,0,0,0,6.1505,6.1533,6.1575,6.1636,6.1663,6.1802,6.1753,6.176,6.1801,6.1797,6.1858,6.1865,6.1879,6.198,6.1999,6.2049,6.1966,6.2236,6.2243,6.2249,6.2291,6.2303,6.2313,0,0,0,0,0,6.1496,6.1583,6.1578,6.16,6.1717,6.1805,6.182,6.1836,6.1805,6.1847,6.1876,6.1863,6.2032,6.199,6.2011,6.2065,6.2233,6.2241,6.2248,6.2286,6.2301,6.2313,0,0,0,0,0,0,6.1526,6.1591,6.1586,6.1695,6.1745,6.1802,6.1856,6.1851,6.1909,6.1903,6.1918,6.1932,6.2028,6.2056,6.2007,6.2171,6.2128,6.214,6.215,6.2164,6.2175,6.2166,6.1973,0,0,0,0,0,6.1545,6.1613,6.1666,6.1757,6.1782,6.1815,6.1854,6.1862,6.1913,6.1934,6.197,6.2019,6.2083,6.2125,6.2187,6.2295,6.2307,6.2342,6.2353,6.2362,6.2372,6.243,6.2446,6.2277,6.2277,6.2277,0,0,6.1585,6.1629,6.1671,6.1764,6.1803,6.1871,6.1833,6.1907,6.1957,6.1945,6.2036,6.2064,6.212,6.2222,6.2268,6.2248,6.2421,6.2372,6.2378,6.2384,6.244,6.2455,6.247,6.2282,6.2281,6.228,0,0,6.1693,6.1734,6.1814,6.1855,6.1915,6.1936,6.1955,6.2014,6.2032,6.2125,6.2117,6.2176,6.2286,6.2326,6.2361,6.2483,6.2473,6.2502,6.2559,6.2616,6.2629,6.2641,6.2683,6.2699,6.2512,6.2512,6.2512,0,6.1735,6.184,6.1855,6.1931,6.1971,6.1964,6.2044,6.2082,6.2159,6.2186,6.2162,6.23,6.2337,6.2448,6.2477,6.2506,6.2527,6.2495,6.2626,6.2638,6.2649,6.269,6.2706,6.2516,6.2515,6.2515,6.2515,0,6.1887,6.1959,6.2016,6.2092,6.2139,6.2216,6.2242,6.2287,6.229,6.2313,6.2406,6.2451,6.2521,6.2547,6.2551,6.2658,6.2643,6.2623,6.2579,6.2668,6.2707,6.2723,6.252,6.2519,6.2518,6.2517,0,0,6.2018,6.2101,6.2122,6.2156,6.2221,6.2277,6.2352,6.2422,6.246,6.2513,6.2576,6.2669,6.265,6.269,6.2697,6.2747,6.284,6.272,6.2722,6.274,6.2959,6.2973,6.2991,6.2833,6.2836,6.2839,6.2954,0,6.2132,6.2268,6.2283,6.2404,6.2469,6.2463,6.2529,6.2575,6.2599,6.2656,6.2681,6.2747,6.2718,6.2741,6.279,6.2818,6.2883,6.281,6.289,6.2893,6.2876,6.3012,6.3028,6.3134,6.2969,6.2972,6.2974,0,6.2283,6.2341,6.2468,6.2524,6.2552,6.2611,6.2676,6.2732,6.2784,6.2797,6.2841,6.2842,6.2918,6.2872,6.2977,6.2926,6.296,6.2978,6.2983,6.299,6.2938,6.3022,6.3169,6.3184,6.2998,6.2996,6.2994,0,6.2364,6.2474,6.2564,6.2593,6.2661,6.2702,6.2732,6.2781,6.2822,6.2878,6.2904,6.2967,6.3002,6.305,6.3067,6.3033,6.3171,6.3126,6.3183,6.3182,6.3212,6.3209,6.3365,6.3234,6.3234,6.3234,6.3234,0,6.2489,6.2567,6.2601,6.2657,6.2743,6.276,6.2844,6.2872,6.2915,6.2974,6.2972,6.3028,6.3048,6.3106,6.312,6.3203,6.3219,6.3231,6.3233,6.3231,6.3229,6.3253,6.3245,6.3238,6.3237,6.3236,6.3236,0,6.2594,6.2621,6.2718,6.2775,6.279,6.2851,6.2898,6.2951,6.2973,6.3048,6.3066,6.3101,6.3169,6.3191,6.3273,6.3283,6.338,6.3377,6.3363,6.3363,6.3418,6.3412,6.3593,6.3618,6.3472,6.3473,6.3474,0,6.2672,6.2732,6.2795,6.2835,6.2866,6.2931,6.2972,6.2991,6.3034,6.3097,6.3141,6.3209,6.3264,6.3373,6.3405,6.3467,6.3464,6.3524,6.3474,6.3469,6.3464,6.346,6.3466,6.3533,6.3534,6.3536,6.3537,0,6.2808,6.2817,6.2878,6.2943,6.2993,6.3045,6.3095,6.3127,6.3152,6.32,6.3271,6.3314,6.3398,6.3465,6.3528,6.3557,6.3551,6.3552,6.3568,6.3566,6.3555,6.3561,6.3388,6.3548,6.3547,6.3546,6.3545,6.3545,6.2901,6.2953,6.3005,6.3072,6.3112,6.3159,6.321,6.3239,6.3299,6.337,6.3376,6.3452,6.35,6.3586,6.3617,6.3676,6.3659,6.3682,6.3688,6.3693,6.3697,6.3547,6.3687,6.3687,6.3687,6.3686,6.3686,0,6.3035,6.3068,6.313,6.32,6.3253,6.3243,6.3298,6.3342,6.3409,6.3456,6.351,6.359,6.3655,6.3691,6.3755,6.3795,6.3794,6.3811,6.3808,6.3814,6.3709,6.3689,6.3811,6.3811,6.3811,6.3811,6.3811,6.3811,6.3111,6.3199,6.3215,6.3322,6.3354,6.3429,6.346,6.3503,6.354,6.363,6.3684,6.3708,6.375,6.3817,6.3876,6.3884,6.3908,6.3927,6.3934,6.3835,6.3822,6.381,6.379,6.3932,6.3932,6.4034,6.4035,6.4036]}]]